This demonstration page uses our WeatherBlox Daily Observations layout. Learn more.

Left ArrowRight Arrow

Hourly Observations for May 25, 2022

Temp ( °F °C ) Dew Point ( °F °C ) Humidity (%) Winds ( mph kmh ) Pressure ( in mb ) Visibility ( mi km ) Precip ( " mm )
12:53 am 00:53 Clear 44 6.7 32 0 63 63 S 3 6 29.89 1012 10 16 0.00 0.00
1:53 am 01:53 Clear 52 11.1 33 0.6 49 49 SW 15 24 29.87 1011 10 16 0.00 0.00
2:53 am 02:53 Clear 48 8.9 33 0.6 56 56 SW 16 26 29.87 1011 10 16 0.00 0.00
3:53 am 03:53 Clear 46 7.8 33 0.6 61 61 SW 12 19 29.87 1011 10 16 0.00 0.00
4:53 am 04:53 Clear 48 8.9 33 0.6 56 56 SW 12 19 29.87 1012 10 16 0.00 0.00
5:53 am 05:53 Mostly Cloudy 48 8.9 33 0.6 56 56 SW 12 19 29.88 1012 10 16 0.00 0.00
6:53 am 06:53 Sunny 49 9.4 34 1.1 56 56 SW 9 15 29.88 1012 10 16 0.00 0.00
7:53 am 07:53 Sunny 55 12.8 34 1.1 45 45 SW 12 19 29.87 1012 10 16 0.00 0.00
8:53 am 08:53 Sunny 59 15 33 0.6 38 38 SW 14 22 29.86 1011 10 16 0.00 0.00
9:53 am 09:53 Sunny 61 16.1 33 0.6 35 35 WSW 12 19 29.86 1011 10 16 0.00 0.00
10:53 am 10:53 Sunny 65 18.3 33 0.6 31 31 WSW 17 28 29.84 1011 10 16 0.00 0.00
11:53 am 11:53 Mostly Cloudy 66 18.9 30 -1.1 26 26 WSW 14 22 29.84 1011 N/A 0.00 0.00
12:53 pm 12:53 Cloudy 69 20.6 31 -0.6 24 24 undefined N/A 29.83 1010 10 16 0.00 0.00
1:53 pm 13:53 Cloudy 69 20.6 32 0 25 25 WSW 13 20 29.80 1009 10 16 0.00 0.00
2:53 pm 14:53 Cloudy 70 21.1 31 -0.6 23 23 WSW 14 22 29.79 1009 10 16 0.00 0.00
3:53 pm 15:53 Cloudy 73 22.8 32 0 22 22 WNW 17 28 29.77 1008 10 16 0.00 0.00
4:53 pm 16:53 Mostly Cloudy 75 23.9 33 0.6 22 22 W 28 44 29.76 1008 10 16 0.00 0.00
5:53 pm 17:53 Mostly Cloudy 72 22.2 33 0.6 24 24 W 18 30 29.77 1008 10 16 0.00 0.00
6:53 pm 18:53 Sunny 71 21.7 33 0.6 25 25 W 26 43 29.77 1008 10 16 0.00 0.00
7:53 pm 19:53 Sunny 68 20 35 1.7 30 30 W 23 37 29.78 1009 10 16 0.00 0.00
8:53 pm 20:53 Sunny 65 18.3 35 1.7 33 33 W 20 31 29.79 1009 10 16 0.00 0.00
9:53 pm 21:53 Clear 62 16.7 36 2.2 38 38 W 21 33 29.81 1010 10 16 0.00 0.00
10:53 pm 22:53 Clear 60 15.6 37 2.8 42 42 W 17 28 29.83 1010 10 16 0.00 0.00
11:53 pm 23:53 Clear 56 13.3 37 2.8 49 49 W 16 26 29.85 1011 10 16 0.00 0.00

Powered by AerisWeather